EAA6309 SBSL-SBBE

Flight info

Callsign EAA6309
Flight time 1h 30m
Altitude 6000
Route SAVIO Z81 PUPKI
Aircraft C208/L-SDFGR/C

Departure

Time 2026-05-04 20:40
Airport Marechal Cunha Machado International Airport (SBSL)

Arrival

Time 2026-05-04 22:10
Airport Val de Cans/Júlio Cezar Ribeiro International Airport (SBBE)
Time Latitude Longitude Altitude Speed Heading
2026-05-04 20:34 -2.58541 -44.23902 168 ft 0 kts 341°
2026-05-04 20:35 -2.58501 -44.23883 167 ft 10 kts 63°
2026-05-04 20:35 -2.58550 -44.23837 166 ft 14 kts 173°
2026-05-04 20:36 -2.58587 -44.23858 167 ft 0 kts 256°
2026-05-04 20:38 -2.58570 -44.23873 167 ft 12 kts 360°
2026-05-04 20:38 -2.58515 -44.23785 164 ft 21 kts 75°
2026-05-04 20:38 -2.58475 -44.23621 160 ft 28 kts 77°
2026-05-04 20:38 -2.58442 -44.23445 156 ft 20 kts 104°
2026-05-04 20:39 -2.58524 -44.23395 157 ft 15 kts 209°
2026-05-04 20:39 -2.58599 -44.23544 160 ft 52 kts 248°
2026-05-04 20:39 -2.58795 -44.24066 173 ft 100 kts 250°
2026-05-04 20:39 -2.59046 -44.24693 402 ft 104 kts 245°
2026-05-04 20:40 -2.59363 -44.25368 558 ft 108 kts 243°
2026-05-04 20:40 -2.59311 -44.26107 749 ft 112 kts 294°
2026-05-04 20:40 -2.59091 -44.26832 933 ft 106 kts 288°
2026-05-04 20:40 -2.58883 -44.27544 1126 ft 107 kts 288°
2026-05-04 20:41 -2.58669 -44.28285 1326 ft 113 kts 287°
2026-05-04 20:41 -2.58453 -44.29042 1516 ft 112 kts 287°
2026-05-04 20:41 -2.58237 -44.29820 1654 ft 120 kts 287°
2026-05-04 20:41 -2.58013 -44.30622 1826 ft 125 kts 286°
2026-05-04 20:42 -2.57779 -44.31455 2026 ft 125 kts 287°
2026-05-04 20:42 -2.57532 -44.32337 2241 ft 141 kts 286°
2026-05-04 20:42 -2.57254 -44.33335 2465 ft 156 kts 286°
2026-05-04 20:42 -2.56949 -44.34390 2680 ft 159 kts 286°
2026-05-04 20:43 -2.56626 -44.35450 2884 ft 160 kts 287°
2026-05-04 20:43 -2.56289 -44.36514 3084 ft 162 kts 288°
2026-05-04 20:43 -2.55937 -44.37592 3275 ft 163 kts 289°
2026-05-04 20:43 -2.55575 -44.38669 3457 ft 164 kts 289°
2026-05-04 20:44 -2.55201 -44.39744 3658 ft 164 kts 290°
2026-05-04 20:44 -2.54815 -44.40820 3848 ft 165 kts 291°
2026-05-04 20:44 -2.54420 -44.41897 4045 ft 165 kts 290°
2026-05-04 20:44 -2.54077 -44.42982 4230 ft 166 kts 288°
2026-05-04 20:45 -2.53727 -44.44085 4434 ft 167 kts 289°
2026-05-04 20:45 -2.53367 -44.45186 4632 ft 167 kts 289°
2026-05-04 20:45 -2.52996 -44.46289 4823 ft 168 kts 290°
2026-05-04 20:45 -2.52614 -44.47389 5011 ft 168 kts 291°
2026-05-04 20:46 -2.52222 -44.48490 5202 ft 168 kts 291°
2026-05-04 20:46 -2.51819 -44.49585 5400 ft 168 kts 292°
2026-05-04 20:46 -2.51407 -44.50678 5594 ft 168 kts 293°
2026-05-04 20:46 -2.50987 -44.51767 5788 ft 167 kts 294°
2026-05-04 20:47 -2.50557 -44.52852 5953 ft 170 kts 294°
2026-05-04 20:47 -2.50095 -44.53979 5962 ft 179 kts 295°
2026-05-04 20:47 -2.49595 -44.55140 5968 ft 184 kts 296°
2026-05-04 20:47 -2.49068 -44.56318 5972 ft 187 kts 297°
2026-05-04 20:48 -2.48516 -44.57500 5971 ft 188 kts 298°
2026-05-04 20:48 -2.47943 -44.58679 5971 ft 189 kts 298°
2026-05-04 20:48 -2.47353 -44.59851 5964 ft 189 kts 300°
2026-05-04 20:48 -2.46747 -44.61012 5967 ft 188 kts 301°
2026-05-04 20:49 -2.46126 -44.62164 5967 ft 188 kts 301°
2026-05-04 20:49 -2.45488 -44.63306 5968 ft 188 kts 302°
2026-05-04 20:49 -2.44835 -44.64438 5969 ft 188 kts 303°
2026-05-04 20:49 -2.44165 -44.65562 5966 ft 188 kts 304°
2026-05-04 20:50 -2.43478 -44.66676 5969 ft 188 kts 305°
2026-05-04 20:50 -2.42776 -44.67780 5968 ft 188 kts 306°
2026-05-04 20:50 -2.42058 -44.68873 5972 ft 188 kts 307°
2026-05-04 20:50 -2.41327 -44.69951 5970 ft 187 kts 308°
2026-05-04 20:51 -2.40579 -44.71019 5969 ft 187 kts 309°
2026-05-04 20:51 -2.39823 -44.72081 5970 ft 187 kts 306°
2026-05-04 20:51 -2.39381 -44.73311 5955 ft 189 kts 284°
2026-05-04 20:51 -2.39074 -44.74592 5957 ft 190 kts 285°
2026-05-04 20:52 -2.38765 -44.75878 5958 ft 190 kts 284°
2026-05-04 20:52 -2.38454 -44.77164 5957 ft 190 kts 285°
2026-05-04 20:52 -2.38141 -44.78450 5960 ft 190 kts 285°
2026-05-04 20:52 -2.37831 -44.79734 5963 ft 190 kts 285°
2026-05-04 20:53 -2.37521 -44.81021 5964 ft 190 kts 285°
2026-05-04 20:53 -2.37209 -44.82308 5960 ft 190 kts 285°
2026-05-04 20:53 -2.36897 -44.83594 5958 ft 190 kts 285°
2026-05-04 20:53 -2.36588 -44.84882 5959 ft 191 kts 285°
2026-05-04 20:54 -2.36280 -44.86170 5958 ft 190 kts 285°
2026-05-04 20:54 -2.35971 -44.87459 5955 ft 190 kts 285°
2026-05-04 20:54 -2.35664 -44.88746 5959 ft 190 kts 285°
2026-05-04 20:54 -2.35355 -44.90035 5958 ft 191 kts 285°
2026-05-04 20:55 -2.35046 -44.91324 5957 ft 191 kts 284°
2026-05-04 20:55 -2.34740 -44.92597 5955 ft 191 kts 285°
2026-05-04 20:55 -2.34430 -44.93887 5952 ft 191 kts 285°
2026-05-04 20:55 -2.34118 -44.95179 5956 ft 191 kts 285°
2026-05-04 20:56 -2.33807 -44.96468 5956 ft 191 kts 285°
2026-05-04 20:56 -2.33494 -44.97763 5958 ft 192 kts 285°
2026-05-04 20:56 -2.33180 -44.99057 5958 ft 192 kts 285°
2026-05-04 20:56 -2.32865 -45.00350 5959 ft 191 kts 285°
2026-05-04 20:57 -2.32548 -45.01642 5959 ft 191 kts 285°
2026-05-04 20:57 -2.32232 -45.02930 5959 ft 191 kts 285°
2026-05-04 20:57 -2.31919 -45.04221 5957 ft 191 kts 285°
2026-05-04 20:57 -2.31608 -45.05513 5954 ft 191 kts 285°
2026-05-04 20:58 -2.31296 -45.06806 5954 ft 191 kts 285°
2026-05-04 20:58 -2.30981 -45.08095 5955 ft 191 kts 284°
2026-05-04 20:58 -2.30665 -45.09385 5952 ft 191 kts 285°
2026-05-04 20:58 -2.30352 -45.10676 5953 ft 191 kts 285°
2026-05-04 20:59 -2.30041 -45.11967 5954 ft 191 kts 285°
2026-05-04 20:59 -2.29731 -45.13257 5953 ft 190 kts 285°
2026-05-04 20:59 -2.29421 -45.14546 5952 ft 190 kts 285°
2026-05-04 20:59 -2.29109 -45.15835 5951 ft 191 kts 285°
2026-05-04 21:00 -2.28805 -45.17106 5956 ft 190 kts 284°
2026-05-04 21:00 -2.28493 -45.18391 5953 ft 190 kts 285°
2026-05-04 21:00 -2.28184 -45.19676 5951 ft 190 kts 285°
2026-05-04 21:00 -2.27873 -45.20965 5955 ft 191 kts 285°
2026-05-04 21:01 -2.27561 -45.22253 5955 ft 191 kts 284°
2026-05-04 21:01 -2.27247 -45.23546 5954 ft 191 kts 285°
2026-05-04 21:01 -2.26932 -45.24833 5957 ft 190 kts 285°
2026-05-04 21:01 -2.26618 -45.26117 5956 ft 190 kts 285°
2026-05-04 21:02 -2.26304 -45.27400 5957 ft 190 kts 285°
2026-05-04 21:02 -2.25988 -45.28685 5953 ft 190 kts 285°
2026-05-04 21:02 -2.25673 -45.29969 5955 ft 190 kts 285°
2026-05-04 21:02 -2.25359 -45.31252 5954 ft 190 kts 285°
2026-05-04 21:03 -2.25043 -45.32535 5957 ft 190 kts 285°
2026-05-04 21:03 -2.24727 -45.33818 5952 ft 190 kts 285°
2026-05-04 21:03 -2.24411 -45.35103 5956 ft 190 kts 285°
2026-05-04 21:03 -2.24098 -45.36386 5955 ft 190 kts 285°
2026-05-04 21:04 -2.23785 -45.37668 5956 ft 190 kts 285°
2026-05-04 21:04 -2.23471 -45.38950 5956 ft 190 kts 285°
2026-05-04 21:04 -2.23159 -45.40215 5959 ft 190 kts 285°
2026-05-04 21:04 -2.22838 -45.41519 5956 ft 191 kts 285°
2026-05-04 21:05 -2.22525 -45.42789 5959 ft 191 kts 285°
2026-05-04 21:05 -2.22207 -45.44076 5960 ft 191 kts 285°
2026-05-04 21:05 -2.21891 -45.45365 5964 ft 191 kts 285°
2026-05-04 21:05 -2.21574 -45.46655 5965 ft 191 kts 285°
2026-05-04 21:06 -2.21254 -45.47945 5964 ft 191 kts 285°
2026-05-04 21:06 -2.20933 -45.49233 5960 ft 191 kts 285°
2026-05-04 21:06 -2.20616 -45.50524 5965 ft 191 kts 285°
2026-05-04 21:06 -2.20300 -45.51811 5965 ft 191 kts 285°
2026-05-04 21:07 -2.19984 -45.53101 5963 ft 191 kts 284°
2026-05-04 21:07 -2.19664 -45.54389 5964 ft 191 kts 285°
2026-05-04 21:07 -2.19347 -45.55679 5961 ft 191 kts 285°
2026-05-04 21:07 -2.19031 -45.56965 5963 ft 190 kts 285°
2026-05-04 21:08 -2.18716 -45.58252 5962 ft 191 kts 285°
2026-05-04 21:08 -2.18397 -45.59541 5963 ft 191 kts 285°
2026-05-04 21:08 -2.18080 -45.60830 5965 ft 191 kts 285°
2026-05-04 21:08 -2.17765 -45.62119 5963 ft 191 kts 285°
2026-05-04 21:09 -2.17449 -45.63406 5966 ft 191 kts 285°
2026-05-04 21:09 -2.17132 -45.64698 5964 ft 192 kts 285°
2026-05-04 21:09 -2.16818 -45.65993 5962 ft 192 kts 284°
2026-05-04 21:09 -2.16504 -45.67284 5961 ft 191 kts 285°
2026-05-04 21:10 -2.16192 -45.68576 5962 ft 191 kts 284°
2026-05-04 21:10 -2.15877 -45.69865 5961 ft 191 kts 285°
2026-05-04 21:10 -2.15567 -45.71158 5962 ft 191 kts 284°
2026-05-04 21:10 -2.15252 -45.72445 5963 ft 191 kts 285°
2026-05-04 21:11 -2.14942 -45.73734 5962 ft 191 kts 284°
2026-05-04 21:11 -2.14628 -45.75021 5961 ft 191 kts 285°
2026-05-04 21:11 -2.14312 -45.76308 5962 ft 191 kts 285°
2026-05-04 21:11 -2.13994 -45.77594 5962 ft 191 kts 285°
2026-05-04 21:12 -2.13683 -45.78884 5959 ft 190 kts 285°
2026-05-04 21:12 -2.13372 -45.80171 5962 ft 191 kts 284°
2026-05-04 21:12 -2.13060 -45.81440 5958 ft 191 kts 285°
2026-05-04 21:12 -2.12738 -45.82744 5957 ft 190 kts 285°
2026-05-04 21:13 -2.12425 -45.84009 5958 ft 190 kts 285°
2026-05-04 21:13 -2.12114 -45.85291 5954 ft 190 kts 285°
2026-05-04 21:13 -2.11798 -45.86574 5958 ft 190 kts 285°
2026-05-04 21:13 -2.11482 -45.87858 5955 ft 190 kts 285°
2026-05-04 21:14 -2.11165 -45.89141 5958 ft 190 kts 285°
2026-05-04 21:14 -2.10856 -45.90423 5959 ft 190 kts 285°
2026-05-04 21:14 -2.10545 -45.91704 5961 ft 190 kts 285°
2026-05-04 21:14 -2.10232 -45.92988 5957 ft 190 kts 285°
2026-05-04 21:15 -2.09918 -45.94273 5956 ft 190 kts 285°
2026-05-04 21:15 -2.09604 -45.95554 5955 ft 190 kts 285°
2026-05-04 21:15 -2.09291 -45.96835 5958 ft 190 kts 285°
2026-05-04 21:15 -2.08976 -45.98114 5960 ft 190 kts 285°
2026-05-04 21:16 -2.08658 -45.99393 5958 ft 190 kts 285°
2026-05-04 21:16 -2.08341 -46.00674 5957 ft 190 kts 285°
2026-05-04 21:16 -2.08029 -46.01956 5962 ft 189 kts 285°
2026-05-04 21:16 -2.07717 -46.03232 5961 ft 189 kts 284°
2026-05-04 21:17 -2.07406 -46.04492 5961 ft 189 kts 285°
2026-05-04 21:17 -2.07090 -46.05766 5960 ft 189 kts 285°
2026-05-04 21:17 -2.06776 -46.07044 5959 ft 189 kts 285°
2026-05-04 21:17 -2.06462 -46.08323 5955 ft 189 kts 285°
2026-05-04 21:18 -2.06149 -46.09600 5958 ft 189 kts 285°
2026-05-04 21:18 -2.05832 -46.10874 5958 ft 189 kts 285°
2026-05-04 21:18 -2.05619 -46.11738 5960 ft 189 kts 285°
2026-05-04 21:18 -2.05305 -46.13015 5959 ft 189 kts 285°
2026-05-04 21:19 -2.04996 -46.14293 5959 ft 189 kts 285°
2026-05-04 21:19 -2.04686 -46.15571 5958 ft 189 kts 285°
2026-05-04 21:19 -2.04379 -46.16834 5957 ft 190 kts 285°
2026-05-04 21:19 -2.04066 -46.18114 5956 ft 190 kts 285°
2026-05-04 21:20 -2.03753 -46.19392 5958 ft 189 kts 285°
2026-05-04 21:20 -2.03442 -46.20669 5956 ft 189 kts 285°
2026-05-04 21:20 -2.03132 -46.21948 5961 ft 189 kts 285°
2026-05-04 21:20 -2.02824 -46.23227 5959 ft 189 kts 285°
2026-05-04 21:21 -2.02514 -46.24506 5960 ft 189 kts 285°
2026-05-04 21:21 -2.02202 -46.25783 5959 ft 189 kts 285°
2026-05-04 21:21 -2.01892 -46.27060 5955 ft 189 kts 285°
2026-05-04 21:21 -2.01582 -46.28338 5955 ft 189 kts 285°
2026-05-04 21:22 -2.01273 -46.29614 5956 ft 189 kts 285°
2026-05-04 21:22 -2.00963 -46.30891 5956 ft 189 kts 285°
2026-05-04 21:22 -2.00654 -46.32168 5957 ft 189 kts 285°
2026-05-04 21:22 -2.00347 -46.33442 5954 ft 189 kts 285°
2026-05-04 21:23 -2.00039 -46.34716 5956 ft 188 kts 285°
2026-05-04 21:23 -1.99732 -46.35989 5955 ft 188 kts 285°
2026-05-04 21:23 -1.99429 -46.37262 5959 ft 188 kts 285°
2026-05-04 21:23 -1.99126 -46.38534 5959 ft 188 kts 285°
2026-05-04 21:24 -1.98820 -46.39809 5958 ft 189 kts 285°
2026-05-04 21:24 -1.98512 -46.41084 5959 ft 189 kts 285°
2026-05-04 21:24 -1.98208 -46.42360 5958 ft 189 kts 285°
2026-05-04 21:24 -1.97900 -46.43637 5958 ft 189 kts 285°
2026-05-04 21:25 -1.97595 -46.44911 5958 ft 189 kts 285°
2026-05-04 21:25 -1.97288 -46.46186 5958 ft 189 kts 285°
2026-05-04 21:25 -1.96982 -46.47464 5960 ft 189 kts 285°
2026-05-04 21:25 -1.96675 -46.48743 5959 ft 189 kts 285°
2026-05-04 21:26 -1.96367 -46.50020 5957 ft 189 kts 285°
2026-05-04 21:26 -1.96057 -46.51297 5958 ft 189 kts 285°
2026-05-04 21:26 -1.95751 -46.52572 5960 ft 188 kts 285°
2026-05-04 21:26 -1.95445 -46.53842 5960 ft 188 kts 285°
2026-05-04 21:27 -1.95138 -46.55110 5962 ft 188 kts 285°
2026-05-04 21:27 -1.94831 -46.56375 5959 ft 187 kts 285°
2026-05-04 21:27 -1.94525 -46.57643 5960 ft 188 kts 285°
2026-05-04 21:27 -1.94218 -46.58913 5961 ft 188 kts 285°
2026-05-04 21:28 -1.93912 -46.60185 5961 ft 188 kts 285°
2026-05-04 21:28 -1.93611 -46.61438 5958 ft 187 kts 285°
2026-05-04 21:28 -1.93303 -46.62722 5959 ft 188 kts 285°
2026-05-04 21:28 -1.93002 -46.63974 5961 ft 188 kts 285°
2026-05-04 21:29 -1.92695 -46.65249 5960 ft 189 kts 285°
2026-05-04 21:29 -1.92389 -46.66520 5960 ft 188 kts 285°
2026-05-04 21:29 -1.92084 -46.67792 5966 ft 188 kts 285°
2026-05-04 21:29 -1.91776 -46.69068 5961 ft 188 kts 285°
2026-05-04 21:30 -1.91470 -46.70340 5964 ft 188 kts 285°
2026-05-04 21:30 -1.91165 -46.71613 5962 ft 188 kts 285°
2026-05-04 21:30 -1.90861 -46.72889 5961 ft 189 kts 285°
2026-05-04 21:30 -1.90557 -46.74166 5963 ft 189 kts 285°
2026-05-04 21:31 -1.89938 -46.76718 5958 ft 189 kts 285°
2026-05-04 21:31 -1.89628 -46.77991 5957 ft 189 kts 285°
2026-05-04 21:31 -1.89322 -46.79267 5958 ft 188 kts 285°
2026-05-04 21:32 -1.89015 -46.80542 5959 ft 189 kts 285°
2026-05-04 21:32 -1.88707 -46.81813 5959 ft 188 kts 285°
2026-05-04 21:32 -1.88401 -46.83083 5962 ft 188 kts 285°
2026-05-04 21:32 -1.88095 -46.84355 5961 ft 188 kts 285°
2026-05-04 21:33 -1.87791 -46.85627 5959 ft 188 kts 285°
2026-05-04 21:33 -1.87489 -46.86897 5960 ft 188 kts 285°
2026-05-04 21:33 -1.87189 -46.88166 5960 ft 188 kts 285°
2026-05-04 21:33 -1.86886 -46.89434 5958 ft 188 kts 285°
2026-05-04 21:34 -1.86581 -46.90703 5957 ft 187 kts 285°
2026-05-04 21:34 -1.86279 -46.91967 5959 ft 187 kts 285°
2026-05-04 21:34 -1.85983 -46.93217 5958 ft 187 kts 285°
2026-05-04 21:34 -1.85681 -46.94486 5958 ft 188 kts 285°
2026-05-04 21:35 -1.85377 -46.95759 5960 ft 188 kts 285°
2026-05-04 21:35 -1.85075 -46.97027 5959 ft 187 kts 285°
2026-05-04 21:35 -1.84776 -46.98296 5960 ft 187 kts 285°
2026-05-04 21:35 -1.84478 -46.99565 5957 ft 187 kts 285°
2026-05-04 21:36 -1.84175 -47.00832 5958 ft 187 kts 285°
2026-05-04 21:36 -1.83869 -47.02098 5957 ft 187 kts 285°
2026-05-04 21:36 -1.83567 -47.03362 5959 ft 187 kts 285°
2026-05-04 21:36 -1.83263 -47.04627 5959 ft 187 kts 285°
2026-05-04 21:37 -1.82958 -47.05890 5958 ft 187 kts 285°
2026-05-04 21:37 -1.82655 -47.07154 5959 ft 187 kts 285°
2026-05-04 21:37 -1.82353 -47.08416 5956 ft 186 kts 285°
2026-05-04 21:37 -1.82050 -47.09678 5955 ft 187 kts 285°
2026-05-04 21:38 -1.81745 -47.10937 5955 ft 187 kts 285°
2026-05-04 21:38 -1.81440 -47.12200 5958 ft 187 kts 285°
2026-05-04 21:38 -1.81137 -47.13462 5961 ft 187 kts 285°
2026-05-04 21:38 -1.80834 -47.14724 5962 ft 187 kts 285°
2026-05-04 21:39 -1.80530 -47.15985 5959 ft 187 kts 285°
2026-05-04 21:39 -1.80227 -47.17246 5962 ft 187 kts 285°
2026-05-04 21:39 -1.79923 -47.18508 5955 ft 187 kts 285°
2026-05-04 21:39 -1.79619 -47.19769 5959 ft 187 kts 285°
2026-05-04 21:40 -1.79319 -47.21015 5955 ft 187 kts 285°
2026-05-04 21:40 -1.79013 -47.22278 5957 ft 187 kts 285°
2026-05-04 21:40 -1.78706 -47.23541 5955 ft 187 kts 285°
2026-05-04 21:40 -1.78400 -47.24802 5957 ft 187 kts 285°
2026-05-04 21:41 -1.78095 -47.26065 5959 ft 187 kts 285°
2026-05-04 21:41 -1.77788 -47.27325 5960 ft 187 kts 285°
2026-05-04 21:41 -1.77481 -47.28589 5955 ft 187 kts 285°
2026-05-04 21:41 -1.77174 -47.29850 5957 ft 187 kts 285°
2026-05-04 21:42 -1.76868 -47.31110 5960 ft 186 kts 285°
2026-05-04 21:42 -1.76563 -47.32368 5960 ft 186 kts 285°
2026-05-04 21:42 -1.76257 -47.33627 5961 ft 186 kts 285°
2026-05-04 21:42 -1.75950 -47.34888 5961 ft 187 kts 285°
2026-05-04 21:43 -1.75642 -47.36147 5960 ft 186 kts 285°
2026-05-04 21:43 -1.75333 -47.37406 5960 ft 186 kts 285°
2026-05-04 21:43 -1.75024 -47.38664 5958 ft 187 kts 285°
2026-05-04 21:43 -1.74715 -47.39924 5956 ft 186 kts 285°
2026-05-04 21:44 -1.74410 -47.41183 5959 ft 186 kts 285°
2026-05-04 21:44 -1.74107 -47.42441 5961 ft 186 kts 285°
2026-05-04 21:44 -1.73801 -47.43698 5960 ft 186 kts 285°
2026-05-04 21:44 -1.73493 -47.44959 5962 ft 186 kts 285°
2026-05-04 21:45 -1.73186 -47.46215 5958 ft 186 kts 285°
2026-05-04 21:45 -1.72881 -47.47473 5959 ft 186 kts 285°
2026-05-04 21:45 -1.72575 -47.48731 5959 ft 186 kts 285°
2026-05-04 21:45 -1.72274 -47.49971 5958 ft 186 kts 285°
2026-05-04 21:46 -1.71967 -47.51230 5958 ft 186 kts 285°
2026-05-04 21:46 -1.71661 -47.52487 5958 ft 186 kts 285°
2026-05-04 21:46 -1.71359 -47.53743 5959 ft 186 kts 285°
2026-05-04 21:46 -1.71057 -47.55000 5961 ft 186 kts 285°
2026-05-04 21:47 -1.70751 -47.56256 5959 ft 186 kts 285°
2026-05-04 21:47 -1.70445 -47.57511 5961 ft 186 kts 285°
2026-05-04 21:47 -1.70074 -47.58748 5961 ft 186 kts 290°
2026-05-04 21:47 -1.69670 -47.59974 5959 ft 186 kts 290°
2026-05-04 21:48 -1.69265 -47.61199 5960 ft 185 kts 290°
2026-05-04 21:48 -1.68861 -47.62422 5958 ft 186 kts 290°
2026-05-04 21:48 -1.68456 -47.63647 5959 ft 185 kts 290°
2026-05-04 21:48 -1.68052 -47.64871 5959 ft 185 kts 290°
2026-05-04 21:49 -1.67650 -47.66094 5959 ft 185 kts 290°
2026-05-04 21:49 -1.67248 -47.67319 5959 ft 185 kts 290°
2026-05-04 21:49 -1.66842 -47.68544 5960 ft 185 kts 290°
2026-05-04 21:49 -1.66381 -47.69744 5960 ft 185 kts 295°
2026-05-04 21:50 -1.65883 -47.70928 5962 ft 185 kts 295°
2026-05-04 21:50 -1.65384 -47.72113 5960 ft 185 kts 295°
2026-05-04 21:50 -1.64882 -47.73298 5960 ft 185 kts 295°
2026-05-04 21:50 -1.64380 -47.74482 5959 ft 185 kts 295°
2026-05-04 21:51 -1.63877 -47.75667 5961 ft 185 kts 295°
2026-05-04 21:51 -1.63375 -47.76852 5961 ft 185 kts 295°
2026-05-04 21:51 -1.62874 -47.78037 5961 ft 185 kts 295°
2026-05-04 21:51 -1.62369 -47.79224 5964 ft 186 kts 295°
2026-05-04 21:52 -1.61865 -47.80410 5958 ft 185 kts 295°
2026-05-04 21:52 -1.61361 -47.81595 5962 ft 185 kts 295°
2026-05-04 21:52 -1.60853 -47.82782 5960 ft 186 kts 295°
2026-05-04 21:52 -1.60339 -47.83978 5970 ft 189 kts 295°
2026-05-04 21:53 -1.59801 -47.85190 5967 ft 190 kts 297°
2026-05-04 21:53 -1.59246 -47.86378 5963 ft 188 kts 298°
2026-05-04 21:53 -1.58662 -47.87536 5961 ft 186 kts 300°
2026-05-04 21:53 -1.58060 -47.88676 5958 ft 185 kts 301°
2026-05-04 21:54 -1.57441 -47.89803 5952 ft 185 kts 302°
2026-05-04 21:54 -1.56804 -47.90919 5963 ft 185 kts 302°
2026-05-04 21:54 -1.56140 -47.92039 5804 ft 192 kts 304°
2026-05-04 21:54 -1.55421 -47.93185 5598 ft 197 kts 305°
2026-05-04 21:55 -1.54666 -47.94328 5423 ft 197 kts 306°
2026-05-04 21:55 -1.53898 -47.95438 5255 ft 197 kts 307°
2026-05-04 21:55 -1.53098 -47.96545 5086 ft 196 kts 309°
2026-05-04 21:55 -1.52278 -47.97630 4921 ft 195 kts 310°
2026-05-04 21:56 -1.51436 -47.98696 4753 ft 195 kts 311°
2026-05-04 21:56 -1.50575 -47.99738 4583 ft 194 kts 313°
2026-05-04 21:56 -1.49694 -48.00759 4412 ft 194 kts 314°
2026-05-04 21:56 -1.48791 -48.01758 4245 ft 194 kts 315°
2026-05-04 21:57 -1.47867 -48.02737 4071 ft 194 kts 316°
2026-05-04 21:57 -1.46923 -48.03692 3902 ft 193 kts 317°
2026-05-04 21:57 -1.45962 -48.04621 3727 ft 192 kts 319°
2026-05-04 21:57 -1.44984 -48.05525 3562 ft 191 kts 320°
2026-05-04 21:58 -1.43989 -48.06402 3401 ft 191 kts 321°
2026-05-04 21:58 -1.42990 -48.07245 3225 ft 182 kts 323°
2026-05-04 21:58 -1.42031 -48.08015 3043 ft 172 kts 324°
2026-05-04 21:58 -1.41099 -48.08743 2869 ft 169 kts 325°
2026-05-04 21:59 -1.40355 -48.09631 2682 ft 170 kts 296°
2026-05-04 21:59 -1.39932 -48.10733 2505 ft 169 kts 291°
2026-05-04 21:59 -1.39605 -48.11827 2456 ft 160 kts 278°
2026-05-04 21:59 -1.39512 -48.12918 2456 ft 156 kts 275°
2026-05-04 22:00 -1.39427 -48.13989 2461 ft 153 kts 275°
2026-05-04 22:00 -1.39345 -48.15044 2457 ft 152 kts 275°
2026-05-04 22:00 -1.39261 -48.16107 2470 ft 155 kts 275°
2026-05-04 22:00 -1.39179 -48.17183 2467 ft 156 kts 275°
2026-05-04 22:01 -1.39092 -48.18281 2482 ft 166 kts 275°
2026-05-04 22:01 -1.38994 -48.19471 2479 ft 176 kts 275°
2026-05-04 22:01 -1.38885 -48.20702 2480 ft 178 kts 275°
2026-05-04 22:01 -1.38779 -48.21943 2479 ft 180 kts 275°
2026-05-04 22:02 -1.38668 -48.23192 2477 ft 181 kts 275°
2026-05-04 22:02 -1.38553 -48.24461 2481 ft 186 kts 275°
2026-05-04 22:02 -1.38432 -48.25759 2474 ft 187 kts 276°
2026-05-04 22:02 -1.38308 -48.27009 2467 ft 181 kts 275°
2026-05-04 22:03 -1.38207 -48.28236 2460 ft 174 kts 275°
2026-05-04 22:03 -1.38112 -48.29425 2465 ft 169 kts 275°
2026-05-04 22:03 -1.38014 -48.30579 2461 ft 165 kts 275°
2026-05-04 22:03 -1.37924 -48.31717 2465 ft 163 kts 275°
2026-05-04 22:04 -1.37830 -48.32847 2464 ft 164 kts 276°
2026-05-04 22:04 -1.37744 -48.33973 2466 ft 161 kts 275°
2026-05-04 22:04 -1.37654 -48.35084 2463 ft 160 kts 275°
2026-05-04 22:04 -1.37565 -48.36187 2467 ft 160 kts 275°
2026-05-04 22:05 -1.37477 -48.37294 2467 ft 159 kts 275°
2026-05-04 22:05 -1.37395 -48.38399 2465 ft 160 kts 272°
2026-05-04 22:05 -1.37277 -48.39497 2469 ft 159 kts 276°
2026-05-04 22:05 -1.37238 -48.40607 2462 ft 161 kts 272°
2026-05-04 22:06 -1.37200 -48.41728 2466 ft 162 kts 272°
2026-05-04 22:06 -1.37174 -48.42482 2370 ft 167 kts 272°
2026-05-04 22:06 -1.37137 -48.43679 2072 ft 177 kts 268°
2026-05-04 22:06 -1.37405 -48.44888 1755 ft 180 kts 249°
2026-05-04 22:07 -1.38036 -48.45963 1477 ft 178 kts 234°
2026-05-04 22:07 -1.38675 -48.46909 1489 ft 149 kts 235°
2026-05-04 22:07 -1.39219 -48.47723 1469 ft 135 kts 234°
2026-05-04 22:07 -1.39726 -48.48487 1458 ft 130 kts 235°
2026-05-04 22:08 -1.40203 -48.49229 1500 ft 126 kts 238°
2026-05-04 22:08 -1.40579 -48.50045 1394 ft 132 kts 251°
2026-05-04 22:08 -1.40715 -48.50937 1368 ft 127 kts 273°
2026-05-04 22:08 -1.40480 -48.51771 1319 ft 126 kts 309°
2026-05-04 22:09 -1.39687 -48.52049 1125 ft 127 kts 18°
2026-05-04 22:09 -1.39186 -48.51429 1128 ft 123 kts 84°
2026-05-04 22:09 -1.39548 -48.50675 972 ft 114 kts 130°
2026-05-04 22:09 -1.39878 -48.50044 707 ft 100 kts 82°
2026-05-04 22:10 -1.39671 -48.49396 533 ft 95 kts 58°
2026-05-04 22:10 -1.39246 -48.48934 271 ft 80 kts 47°
2026-05-04 22:10 -1.38895 -48.48593 119 ft 63 kts 47°
2026-05-04 22:10 -1.38625 -48.48327 43 ft 45 kts 47°
2026-05-04 22:11 -1.38480 -48.48173 45 ft 22 kts 45°
2026-05-04 22:11 -1.38380 -48.48085 46 ft 16 kts 14°
2026-05-04 22:11 -1.38309 -48.48127 46 ft 17 kts 315°
2026-05-04 22:11 -1.38282 -48.48153 46 ft 0 kts 316°